User: anonymous   Login
Location: Rottenacker
(48.2350°N, 9.6886°E)
Time: 10:15:51
(UTC+01:00)
Language:

Tiangong 2 - Orbit

View from above orbital plane
View from above orbital plane
View from above satellite
View from above satellite

Ground track
Ground track

The orbit data is extracted from the following two-line orbital elements,

1 41765U 16057A   19023.14733122  .00002611  00000-0  35352-4 0  9992
2 41765  42.7846 111.6125 0008335 333.7952 102.8380 15.60488885134377
Epoch (UTC): 23 January 2019 03:32:09
Eccentricity: 0.0008335
inclination: 42.7846°
perigee height: 380 km
apogee height: 392 km
right ascension of ascending node: 111.6125°
argument of perigee: 333.7952°
revolutions per day: 15.60488885
mean anomaly at epoch: 102.8380°
orbit number at epoch: 13437

The dashed part of the orbit path shows where the satellite is in the earth's shadow,  

DLR